DAL250 EDDL-EDDH

Flight info

Callsign DAL250
Flight time N/A
Altitude 29000
Route MEVEL1Z/05R MEVEL DCT MUBZI M105 RIBSO RIBSO7A
Aircraft A21N/M-SDE3FGHIRWY/LB1

Departure

Time 2026-05-06 09:37
Airport Düsseldorf Airport (EDDL)

Arrival

Time N/A
Airport Hamburg Helmut Schmidt Airport (EDDH)
Time Latitude Longitude Altitude Speed Heading
2026-05-06 09:16 51.27731 6.75544 124 ft 0 kts 63°
2026-05-06 09:29 51.27725 6.75524 125 ft 2 kts 63°
2026-05-06 09:29 51.27718 6.75502 126 ft 1 kts 63°
2026-05-06 09:30 51.27713 6.75488 126 ft 1 kts 54°
2026-05-06 09:30 51.27703 6.75473 126 ft 2 kts 20°
2026-05-06 09:30 51.27688 6.75471 126 ft 2 kts 345°
2026-05-06 09:30 51.27679 6.75478 126 ft 1 kts 319°
2026-05-06 09:31 51.27673 6.75484 127 ft 0 kts 332°
2026-05-06 09:33 51.27687 6.75472 126 ft 6 kts 332°
2026-05-06 09:34 51.27746 6.75426 125 ft 10 kts 334°
2026-05-06 09:34 51.27762 6.75414 125 ft 2 kts 333°
2026-05-06 09:34 51.27795 6.75386 124 ft 7 kts 332°
2026-05-06 09:34 51.27858 6.75335 123 ft 11 kts 333°
2026-05-06 09:35 51.27877 6.75319 123 ft 1 kts 333°
2026-05-06 09:35 51.27902 6.75299 122 ft 6 kts 333°
2026-05-06 09:35 51.27953 6.75265 121 ft 8 kts 349°
2026-05-06 09:35 51.28015 6.75312 120 ft 10 kts 55°
2026-05-06 09:36 51.28044 6.75375 120 ft 0 kts 52°
2026-05-06 09:37 51.28150 6.75593 120 ft 63 kts 51°
2026-05-06 09:37 51.28587 6.76497 124 ft 133 kts 52°
2026-05-06 09:37 51.29258 6.77910 265 ft 172 kts 51°
2026-05-06 09:37 51.29992 6.79482 912 ft 180 kts 51°
2026-05-06 09:38 51.30752 6.81113 1632 ft 188 kts 50°
2026-05-06 09:38 51.31575 6.82878 2290 ft 201 kts 51°
2026-05-06 09:38 51.32456 6.84742 2763 ft 222 kts 50°
2026-05-06 09:38 51.33445 6.86811 3281 ft 236 kts 52°
2026-05-06 09:39 51.34460 6.88991 3743 ft 252 kts 48°
2026-05-06 09:39 51.35904 6.90640 4386 ft 259 kts 20°
2026-05-06 09:39 51.37662 6.91249 5142 ft 263 kts
2026-05-06 09:39 51.39549 6.91718 5873 ft 271 kts
2026-05-06 09:40 51.41528 6.92218 6624 ft 278 kts
2026-05-06 09:40 51.43532 6.92743 7417 ft 282 kts
2026-05-06 09:40 51.47475 6.93793 9176 ft 284 kts
2026-05-06 09:41 51.49564 6.94092 10091 ft 282 kts
2026-05-06 09:41 51.51546 6.93874 10662 ft 293 kts 353°
2026-05-06 09:41 51.53633 6.93334 11020 ft 310 kts 351°
2026-05-06 09:41 51.55795 6.92714 11420 ft 325 kts 350°
2026-05-06 09:42 51.58049 6.92067 12052 ft 332 kts 351°
2026-05-06 09:42 51.60340 6.91415 12743 ft 336 kts 352°
2026-05-06 09:42 51.62647 6.90766 13404 ft 341 kts 352°
2026-05-06 09:42 51.65030 6.90100 14036 ft 346 kts 352°
2026-05-06 09:43 51.67422 6.89468 14652 ft 350 kts 355°
2026-05-06 09:43 51.69819 6.89806 15242 ft 350 kts 19°
2026-05-06 09:43 51.71943 6.91632 15869 ft 349 kts 40°
2026-05-06 09:43 51.73543 6.94503 16459 ft 351 kts 55°
2026-05-06 09:44 51.74977 6.97700 17022 ft 355 kts 55°
2026-05-06 09:44 51.76414 7.00933 17575 ft 358 kts 55°
2026-05-06 09:44 51.77886 7.04221 18144 ft 362 kts 54°
2026-05-06 09:44 51.79358 7.07483 18686 ft 365 kts 54°
2026-05-06 09:45 51.80843 7.10757 19233 ft 367 kts 53°
2026-05-06 09:45 51.82365 7.14113 19765 ft 370 kts 54°
2026-05-06 09:45 51.83887 7.17466 20232 ft 374 kts 53°
2026-05-06 09:45 51.85356 7.20977 20720 ft 378 kts 57°
2026-05-06 09:46 51.86683 7.24646 21215 ft 381 kts 61°
2026-05-06 09:46 51.87925 7.28406 21708 ft 383 kts 61°
2026-05-06 09:46 51.89159 7.32205 22180 ft 386 kts 62°
2026-05-06 09:46 51.90406 7.36044 22631 ft 389 kts 62°
2026-05-06 09:47 51.91676 7.39960 23108 ft 391 kts 62°
2026-05-06 09:47 51.92956 7.43913 23574 ft 393 kts 61°
2026-05-06 09:47 51.94219 7.47802 24013 ft 396 kts 62°
2026-05-06 09:47 51.95499 7.51746 24454 ft 398 kts 62°
2026-05-06 09:48 51.96783 7.55709 24879 ft 400 kts 62°
2026-05-06 09:48 51.98089 7.59742 25279 ft 403 kts 62°
2026-05-06 09:48 51.99376 7.63730 25694 ft 405 kts 62°
2026-05-06 09:48 52.00681 7.67767 26089 ft 408 kts 62°
2026-05-06 09:49 52.02004 7.71875 26496 ft 410 kts 63°
2026-05-06 09:49 52.03345 7.76054 26855 ft 413 kts 63°
2026-05-06 09:49 52.04747 7.80427 27264 ft 416 kts 63°
2026-05-06 09:49 52.06105 7.84669 27667 ft 417 kts 63°
2026-05-06 09:50 52.07497 7.88894 28029 ft 420 kts 59°
2026-05-06 09:50 52.09418 7.92378 28290 ft 424 kts 38°
2026-05-06 09:50 52.12036 7.94675 28697 ft 426 kts 25°
2026-05-06 09:50 52.14836 7.96694 28797 ft 427 kts 25°
2026-05-06 09:51 52.20444 8.00863 28806 ft 427 kts 26°
2026-05-06 09:51 52.26014 8.05190 28805 ft 428 kts 27°
2026-05-06 09:52 52.31478 8.09525 28806 ft 429 kts 27°
2026-05-06 09:52 52.36838 8.13812 28808 ft 429 kts 27°
2026-05-06 09:53 52.42227 8.18139 28812 ft 429 kts 27°
2026-05-06 09:53 52.47618 8.22478 28812 ft 429 kts 27°
2026-05-06 09:54 52.52994 8.26819 28816 ft 430 kts 27°
2026-05-06 09:54 52.58503 8.31281 28492 ft 429 kts 27°
2026-05-06 09:55 52.61199 8.33469 28211 ft 428 kts 27°
2026-05-06 09:55 52.63856 8.35628 27933 ft 426 kts 27°
2026-05-06 09:55 52.66513 8.37790 27654 ft 425 kts 27°
2026-05-06 09:55 52.69169 8.39955 27377 ft 423 kts 27°
2026-05-06 09:56 52.71823 8.42120 27099 ft 422 kts 27°
2026-05-06 09:56 52.74427 8.44247 26827 ft 420 kts 26°
2026-05-06 09:56 52.77027 8.46373 26547 ft 418 kts 26°
2026-05-06 09:56 52.79653 8.48525 26271 ft 417 kts 26°
2026-05-06 09:57 52.82258 8.50660 25994 ft 416 kts 27°
2026-05-06 09:57 52.84842 8.52782 25719 ft 414 kts 27°
2026-05-06 09:57 52.87431 8.54911 25442 ft 414 kts 27°
2026-05-06 09:57 52.90021 8.57044 25162 ft 412 kts 27°
2026-05-06 09:58 52.92629 8.59196 24889 ft 411 kts 27°
2026-05-06 09:58 52.95187 8.61308 24616 ft 409 kts 26°
2026-05-06 09:58 52.97784 8.63454 24336 ft 407 kts 26°
2026-05-06 09:58 53.00348 8.65578 24061 ft 406 kts 27°
2026-05-06 09:59 53.02876 8.67675 23781 ft 404 kts 27°
2026-05-06 09:59 53.05407 8.69776 23512 ft 403 kts 28°
2026-05-06 09:59 53.07899 8.71847 23258 ft 402 kts 28°
2026-05-06 09:59 53.10424 8.73949 23000 ft 400 kts 27°
2026-05-06 10:00 53.12912 8.76022 22746 ft 399 kts 27°
2026-05-06 10:00 53.15418 8.78115 22405 ft 399 kts 27°
2026-05-06 10:00 53.17921 8.80205 21890 ft 396 kts 27°
2026-05-06 10:00 53.20400 8.82280 21393 ft 393 kts 27°
2026-05-06 10:01 53.22841 8.84324 20880 ft 389 kts 27°
2026-05-06 10:01 53.25290 8.86378 20378 ft 386 kts 27°
2026-05-06 10:01 53.27657 8.88366 19879 ft 383 kts 27°
2026-05-06 10:01 53.30050 8.90380 19336 ft 382 kts 27°
2026-05-06 10:02 53.32410 8.92370 18775 ft 381 kts 27°
2026-05-06 10:02 53.34802 8.94385 18208 ft 379 kts 28°
2026-05-06 10:02 53.37215 8.96422 17648 ft 378 kts 27°
2026-05-06 10:02 53.39552 8.98397 17096 ft 376 kts 28°
2026-05-06 10:03 53.41879 9.00364 16562 ft 374 kts 27°
2026-05-06 10:03 53.44258 9.02378 15990 ft 373 kts 28°
2026-05-06 10:03 53.46592 9.04364 15431 ft 371 kts 27°
2026-05-06 10:03 53.48969 9.06387 14855 ft 368 kts 27°
2026-05-06 10:04 53.51339 9.08408 14280 ft 363 kts 27°
2026-05-06 10:04 53.53680 9.10388 13724 ft 357 kts 28°
2026-05-06 10:04 53.56004 9.12366 13135 ft 351 kts 28°
2026-05-06 10:04 53.58129 9.14560 12548 ft 344 kts 42°
2026-05-06 10:05 53.59615 9.17799 11965 ft 337 kts 64°
2026-05-06 10:05 53.60205 9.21667 11401 ft 330 kts 88°
2026-05-06 10:05 53.59833 9.25513 10823 ft 325 kts 111°
2026-05-06 10:05 53.58577 9.28739 10250 ft 321 kts 134°
2026-05-06 10:06 53.56711 9.30888 9687 ft 318 kts 150°
2026-05-06 10:06 53.54672 9.32568 9123 ft 315 kts 153°
2026-05-06 10:06 53.52793 9.34467 8542 ft 309 kts 136°
2026-05-06 10:06 53.51561 9.37289 7988 ft 302 kts 112°
2026-05-06 10:07 53.50856 9.40657 7429 ft 297 kts 105°
2026-05-06 10:07 53.50273 9.44041 6852 ft 294 kts 104°
2026-05-06 10:07 53.49709 9.47418 6260 ft 290 kts 103°
2026-05-06 10:07 53.49144 9.50769 5767 ft 284 kts 103°
2026-05-06 10:08 53.48589 9.53997 5319 ft 277 kts 103°
2026-05-06 10:08 53.48040 9.57131 4868 ft 271 kts 103°
2026-05-06 10:08 53.47639 9.60285 4397 ft 262 kts 88°
2026-05-06 10:08 53.47903 9.63326 3960 ft 255 kts 76°
2026-05-06 10:09 53.48353 9.66333 3503 ft 252 kts 75°
2026-05-06 10:09 53.48898 9.69233 3086 ft 249 kts 68°
2026-05-06 10:09 53.49725 9.71843 2986 ft 236 kts 57°
2026-05-06 10:09 53.50759 9.74071 2988 ft 235 kts 50°
2026-05-06 10:10 53.51866 9.76188 2976 ft 218 kts 50°
2026-05-06 10:10 53.52859 9.78131 2970 ft 198 kts 51°
2026-05-06 10:10 53.53762 9.79953 2964 ft 185 kts 51°
2026-05-06 10:10 53.54625 9.81716 3007 ft 179 kts 52°
2026-05-06 10:11 53.55447 9.83402 2765 ft 172 kts 52°
2026-05-06 10:11 53.56246 9.85081 2265 ft 174 kts 52°